カタログに戻る

STARLINK-3512

運用中通信VLEO
NORAD 51743·PAYLOAD·🇺🇸 United States

打ち上げ Feb 21, 2022 から Cape Canaveral Space Force Station

Loading…

次のパス (今後24時間)

TLE

最新Source: CelesTrak SupGP

元期: Sep 15, 2026, 01:08 UTC

1 51743C 22016AF  26258.04770833 -.00000676  00000+0 -19983-4 0  2588
2 51743  53.1603 165.5649 0001371  82.6337 122.7238 15.34365661    13

AllMySatでSTARLINK-3512をリアルタイム追跡

Download on the App Store